Regional Weather Roundup
Issued by NWS

Home | Current Version | Previous Version | Text Only | Print | Product List | Glossary On
Versions: 1 2 3 4 5 6 7 8 9 10 11 12 13 14 15 16 17 18 19 20 21 22 23 24 25 26 27 28 29 30 31 32 33 34 35 36 37 38 39 40 41 42 43 44 45 46 47 48 49 50
000
ASUS42 KFFC 271903
RWRGA
WEATHER ROUNDUP FOR GEORGIA
NATIONAL WEATHER SERVICE PEACHTREE CITY GA
300 PM EDT MON APR 27 2015

NOTE: "FAIR" INDICATES FEW OR NO CLOUDS BELOW 12,000 FEET WITH NO
SIGNIFICANT WEATHER AND/OR OBSTRUCTIONS TO VISIBILITY.

* = USE WITH CAUTION. THE STATIONS MARKED WITH AN ASTERISK MAY NOT
REPORT WEATHER SUCH AS PRECIPITATION, FOG, OR THUNDER AND ARE NOT
QUALITY CONTROLLED BY NWS.

THE REMARK "TC" DENOTES TEMPERATURE READING IN DEGREES CELSIUS.

GAZ001>058-272000-
NORTH GEORGIA

CITY           SKY/WX    TMP DP  RH WIND       PRES   REMARKS
ATLANTA        PTSUNNY   70  37  29 NW9       29.87F
ATHENS         MOSUNNY   73  43  33 MISG      29.85R
CHAMBLEE       MOSUNNY   69  36  29 VRB3      29.86F
PEACHTREE CITY PTSUNNY   70  44  39 W9        29.88S
ROME           PTSUNNY   68  41  37 N9        29.90F
WEST ATLANTA   PTSUNNY   70  36  28 N9        29.87F
GAINESVILLE    SUNNY     70  36  28 W8        29.86F
CARTERSVILLE   PTSUNNY   66  38  35 N14       29.91R


CITY           SKY/WX    TMP DP  RH WIND       PRES   REMARKS
DALTON*        MOSUNNY   64  41  42 N10       29.91S
LAWRENCEVILLE* SUNNY     70  37  30 NW6       29.86S
MARIETTA       PTSUNNY   69  39  33 NW8       29.87F
BLAIRSVILLE*     N/A     65  32  29 NW3       29.88S
$$

GAZ059>098-102>109-272000-
CENTRAL GEORGIA

CITY           SKY/WX    TMP DP  RH WIND       PRES   REMARKS
AUGUSTA-BUSH   SUNNY     73  46  38 MISG      29.84R
AUGUSTA-DANIEL MOSUNNY   74  46  36 VRB7      29.85S
COLUMBUS       CLOUDY    72  49  44 CALM      29.87R
MACON          CLOUDY    73  52  47 VRB5      29.87R
ROBINS AFB     CLOUDY    73  50  45 VRB7      29.86R


CITY           SKY/WX    TMP DP  RH WIND       PRES   REMARKS
LAGRANGE*      CLOUDY    73  52  47 N5        29.88S
SYLVANIA*      MOSUNNY   71  52  50 N5        29.84S
MILLEDGEVILLE* CLOUDY    72  52  49 N3        29.86S
$$

GAZ099>101-110>166-272000-
SOUTH GEORGIA

CITY           SKY/WX    TMP DP  RH WIND       PRES   REMARKS
SAVANNAH       CLOUDY    75  51  43 N7        29.83R
VALDOSTA       CLOUDY    74  63  68 VRB3      29.83R
ALMA           CLOUDY    68  58  70 VRB3      29.85S
ST SIMONS      CLOUDY    66  61  84 N10       29.84R
FT STEWART     MOSUNNY   74  55  50 VRB3      29.81S
ALBANY         CLOUDY    71  57  61 VRB3      29.89R
HUNTER AFB     MOSUNNY   75  54  48 NW6       29.81R
MOODY AFB      CLOUDY    72  62  69 N6        29.83R
BRUNSWICK      CLOUDY    64  61  88 N7        29.85R


CITY           SKY/WX    TMP DP  RH WIND       PRES   REMARKS
BAINBRIDGE*    CLOUDY    73  64  73 W6        29.87R
MOULTRIE*      CLOUDY    70  61  73 N5        29.87R
VIDALIA*       MOSUNNY   73  55  53 N9        29.84S
WAYCROSS*      CLOUDY    72  63  73 N6        29.84R
DOUGLAS*       CLOUDY    70  59  68 N5        29.87S
$$


USA.gov is the U.S. government's official web portal to all federal, state and local government web resources and services.